[[{"header":{"parameterUnit":"m.s-1","parameterCategory":1,"la1":30.2991,"la2":30.254,"lo1":-89.0895,"lo2":-89.0444,"dy":0.0017,"dx":0.0017,"nx":28,"ny":28,"refTime":"2025-04-20T21:00:00:Z","depth":0,"parameterNumber":2,"parameterNumberName":"U-component_of_WINDS"},"data":[0,0,0,0,0,0,0,0,0,0,0,0,0,0,0,0,0,0,0,0,0,0,0,0,0,0,0,0,0,0,0,0,0,0,0,0,0,0,0,0,0,0,0,0,0,0,0,0,0,0,0,0,0,0,0,0,0,0,-5.1274,-5.1275,0,-5.1418,-5.142,-5.1421,-5.1432,-5.1431,-5.1429,-5.1428,-5.1572,-5.1577,-5.1582,0,0,0,0,0,0,0,0,0,0,0,0,0,-5.1006,-5.1011,-5.1274,-5.1276,-5.1277,-5.1418,-5.142,-5.1422,-5.1433,-5.1431,-5.1429,-5.1427,-5.157,-5.1576,-5.1583,0,0,0,0,0,0,0,0,0,0,0,0,0,-5.1134,-5.1013,-5.1273,-5.13,-5.1304,-5.1417,-5.142,-5.1422,-5.1433,-5.1431,-5.1428,-5.1426,-5.1568,-5.1576,-5.1584,-5.168,0,0,-5.1608,-5.1611,0,0,0,0,0,0,0,0,-5.1126,-5.1143,-5.1294,-5.1298,-5.1303,-5.1405,-5.1378,-5.1508,-5.1434,-5.1384,-5.1428,-5.1425,-5.1518,-5.153,-5.1562,-5.1686,-5.1693,-5.1609,-5.1613,-5.1617,-5.1619,0,0,0,0,0,0,0,-5.1117,-5.1137,-5.1331,-5.1296,-5.1302,-5.1304,-5.1319,-5.1403,-5.1462,-5.1388,-5.1389,-5.1406,-5.152,-5.1554,-5.1565,-5.1695,-5.1608,-5.1615,-5.162,-5.1623,-5.1906,-5.1908,0,0,0,0,0,0,-5.1104,-5.113,-5.1326,-5.1335,-5.1207,-5.1311,-5.1328,-5.1374,-5.1461,-5.1472,-5.1408,-5.1406,-5.1542,-5.1556,-5.1571,-5.1688,-5.1617,-5.1624,-5.1629,-5.1903,-5.1906,-5.1909,0,0,0,0,0,0,-5.1098,-5.1121,-5.132,-5.1233,-5.1258,-5.1318,-5.137,-5.1378,-5.1413,-5.1477,-5.1487,-5.1432,-5.1541,-5.1559,-5.1653,-5.1693,-5.1628,-5.1635,-5.19,-5.1904,-5.1908,-5.1924,0,0,0,0,0,0,-5.109,-5.1119,-5.1156,-5.1234,-5.1263,-5.14,-5.1372,-5.1383,-5.1427,-5.1426,-5.1502,-5.1513,-5.154,-5.1641,-5.1661,-5.1703,-5.1641,-5.1896,-5.1902,-5.1907,-5.192,-5.1928,-5.1935,0,0,0,0,0,-5.1081,-5.1155,-5.1158,-5.1182,-5.1311,-5.1403,-5.1419,-5.1451,-5.143,-5.1468,-5.1509,-5.151,-5.1687,-5.165,-5.1673,-5.1718,-5.1894,-5.19,-5.1906,-5.1917,-5.1927,-5.1935,0,0,0,0,0,0,-5.1079,-5.1165,-5.117,-5.1271,-5.133,-5.1404,-5.1453,-5.146,-5.1525,-5.1521,-5.1556,-5.1574,-5.1666,-5.1702,-5.166,-5.1816,-5.1788,-5.1799,-5.1788,-5.1798,-5.1806,-5.1794,-5.1648,0,0,0,0,0,-5.109,-5.1159,-5.123,-5.1312,-5.1342,-5.1392,-5.1433,-5.1453,-5.1515,-5.1539,-5.1587,-5.1646,-5.1715,-5.1759,-5.1826,-5.1927,-5.1943,-5.1969,-5.1977,-5.1983,-5.1991,-5.2047,-5.2059,-5.193,-5.1929,-5.1929,0,0,-5.1114,-5.117,-5.121,-5.1313,-5.1361,-5.143,-5.1413,-5.1486,-5.1538,-5.155,-5.1641,-5.1679,-5.1747,-5.1844,-5.189,-5.1877,-5.2031,-5.1991,-5.1995,-5.2,-5.2054,-5.2066,-5.2077,-5.1934,-5.1933,-5.1932,0,0,-5.1192,-5.1242,-5.1316,-5.1365,-5.1438,-5.1472,-5.149,-5.1564,-5.159,-5.1683,-5.1693,-5.1755,-5.1873,-5.1921,-5.1961,-5.2061,-5.2064,-5.2082,-5.212,-5.2174,-5.2184,-5.2193,-5.2227,-5.2239,-5.2091,-5.2091,-5.2091,0,-5.1212,-5.1317,-5.1353,-5.1427,-5.1471,-5.1488,-5.1562,-5.1608,-5.1699,-5.1729,-5.1715,-5.1864,-5.1911,-5.202,-5.2044,-5.2077,-5.2097,-5.2072,-5.218,-5.219,-5.2199,-5.2232,-5.2244,-5.2092,-5.2092,-5.2092,-5.2092,0,-5.1338,-5.1411,-5.1462,-5.155,-5.1601,-5.1675,-5.1721,-5.1768,-5.1784,-5.1819,-5.1914,-5.1972,-5.2051,-5.2079,-5.2094,-5.219,-5.218,-5.2173,-5.2145,-5.2212,-5.2243,-5.2256,-5.2094,-5.2094,-5.2093,-5.2093,0,0,-5.1415,-5.1524,-5.1542,-5.1583,-5.1666,-5.1723,-5.1798,-5.1877,-5.1916,-5.198,-5.2042,-5.2143,-5.2138,-5.2183,-5.2205,-5.2253,-5.2327,-5.2239,-5.2242,-5.2252,-5.2435,-5.2438,-5.2452,-5.2331,-5.2334,-5.2336,-5.2429,0,-5.1501,-5.1635,-5.167,-5.1784,-5.1852,-5.187,-5.1936,-5.1994,-5.2029,-5.2092,-5.2131,-5.2201,-5.2189,-5.2217,-5.2265,-5.2307,-5.2364,-5.2302,-5.2388,-5.2391,-5.2368,-5.2469,-5.2472,-5.2557,-5.2441,-5.2444,-5.2445,0,-5.1618,-5.1685,-5.1806,-5.1882,-5.1911,-5.1969,-5.2045,-5.2105,-5.2171,-5.2194,-5.2246,-5.2264,-5.2343,-5.2314,-5.2422,-5.2379,-5.2417,-5.2444,-5.2448,-5.2455,-5.242,-5.2476,-5.2585,-5.2597,-5.2465,-5.2464,-5.2462,0,-5.166,-5.1781,-5.1869,-5.1903,-5.1994,-5.2035,-5.2074,-5.2139,-5.2184,-5.2251,-5.228,-5.2355,-5.2394,-5.2452,-5.2489,-5.2464,-5.2594,-5.2568,-5.2614,-5.2613,-5.2637,-5.2635,-5.2751,-5.2666,-5.2666,-5.2666,-5.2666,0,-5.1751,-5.1823,-5.1889,-5.1942,-5.2025,-5.2065,-5.2145,-5.2186,-5.2243,-5.2305,-5.2326,-5.2383,-5.2431,-5.2494,-5.2525,-5.2609,-5.2628,-5.2647,-5.2654,-5.2644,-5.2641,-5.2667,-5.2661,-5.2669,-5.2669,-5.2668,-5.2667,0,-5.181,-5.1857,-5.1954,-5.2033,-5.2055,-5.2112,-5.2179,-5.2232,-5.227,-5.2347,-5.2368,-5.2427,-5.2503,-5.2547,-5.2643,-5.2664,-5.2757,-5.2762,-5.2734,-5.2737,-5.2779,-5.2774,-5.2914,-5.2934,-5.2838,-5.2839,-5.284,0,-5.1863,-5.192,-5.2006,-5.2049,-5.209,-5.2159,-5.2206,-5.2249,-5.2297,-5.2379,-5.2421,-5.25,-5.2564,-5.2685,-5.2736,-5.2809,-5.2815,-5.2859,-5.2826,-5.2814,-5.2813,-5.2808,-5.2814,-5.2864,-5.2864,-5.2865,-5.2866,0,-5.1952,-5.1974,-5.2041,-5.2117,-5.2173,-5.2235,-5.2296,-5.233,-5.2383,-5.2436,-5.2515,-5.2565,-5.2665,-5.2741,-5.282,-5.286,-5.2871,-5.2877,-5.2891,-5.288,-5.286,-5.287,-5.2747,-5.2872,-5.2872,-5.2871,-5.2871,-5.287,-5.2009,-5.206,-5.2129,-5.2204,-5.2255,-5.2312,-5.2366,-5.2411,-5.2478,-5.2563,-5.2584,-5.2667,-5.2733,-5.284,-5.2883,-5.2948,-5.294,-5.2961,-5.2966,-5.297,-5.297,-5.2853,-5.2963,-5.2963,-5.2962,-5.2962,-5.2962,0,-5.2098,-5.2144,-5.2212,-5.2298,-5.2357,-5.2365,-5.2434,-5.2482,-5.2555,-5.2617,-5.2681,-5.2771,-5.2847,-5.2905,-5.2982,-5.3023,-5.303,-5.3041,-5.3037,-5.3046,-5.2973,-5.2952,-5.3034,-5.3034,-5.3034,-5.3034,-5.3034,-5.3034,-5.2151,-5.2238,-5.2267,-5.238,-5.2425,-5.2507,-5.2546,-5.2599,-5.2648,-5.2749,-5.2812,-5.285,-5.2911,-5.2993,-5.3062,-5.3077,-5.3104,-5.3114,-5.3129,-5.3059,-5.3051,-5.3044,-5.3024,-5.312,-5.312,-5.3197,-5.3197,-5.3198]},{"header":{"parameterUnit":"m.s-1","parameterCategory":1,"la1":30.2991,"la2":30.254,"lo1":-89.0895,"lo2":-89.0444,"dy":0.0017,"dx":0.0017,"nx":28,"ny":28,"refTime":"2025-04-20T21:00:00:Z","depth":0,"parameterNumber":3,"parameterNumberName":"V-component_of_WINDS"},"data":[0,0,0,0,0,0,0,0,0,0,0,0,0,0,0,0,0,0,0,0,0,0,0,0,0,0,0,0,0,0,0,0,0,0,0,0,0,0,0,0,0,0,0,0,0,0,0,0,0,0,0,0,0,0,0,0,0,0,4.2693,4.2694,0,4.2758,4.2759,4.276,4.2745,4.2744,4.2742,4.2741,4.2802,4.2805,4.2808,0,0,0,0,0,0,0,0,0,0,0,0,0,4.2553,4.2556,4.2693,4.2694,4.2695,4.2758,4.2759,4.276,4.2745,4.2744,4.2742,4.2741,4.2802,4.2805,4.2808,0,0,0,0,0,0,0,0,0,0,0,0,0,4.2616,4.2557,4.2693,4.2695,4.2696,4.2758,4.2759,4.276,4.2745,4.2744,4.2742,4.274,4.28,4.2804,4.2809,4.2871,0,0,4.2821,4.2823,0,0,0,0,0,0,0,0,4.2612,4.2621,4.2694,4.2695,4.2696,4.2742,4.2732,4.2797,4.2746,4.2727,4.2741,4.2739,4.2783,4.2789,4.2805,4.2874,4.2876,4.2822,4.2824,4.2826,4.2827,0,0,0,0,0,0,0,4.2608,4.2618,4.2719,4.2695,4.2697,4.2692,4.2699,4.2744,4.2764,4.2728,4.2727,4.2735,4.2784,4.2801,4.2806,4.2877,4.2821,4.2825,4.2828,4.2829,4.3003,4.3005,0,0,0,0,0,0,4.2603,4.2614,4.2717,4.2721,4.2649,4.2696,4.2704,4.2729,4.2764,4.2767,4.2737,4.2734,4.2795,4.2801,4.2808,4.2885,4.2826,4.283,4.2832,4.3,4.3003,4.3005,0,0,0,0,0,0,4.26,4.2612,4.2714,4.2668,4.268,4.27,4.2729,4.2731,4.2749,4.277,4.2773,4.2751,4.2794,4.2802,4.2856,4.2887,4.2832,4.2835,4.2998,4.3001,4.3004,4.3038,0,0,0,0,0,0,4.2596,4.2611,4.2636,4.2668,4.2683,4.2762,4.2731,4.2734,4.2756,4.2754,4.2785,4.2788,4.2793,4.285,4.286,4.2891,4.2839,4.2995,4.2999,4.3003,4.3034,4.3042,4.3048,0,0,0,0,0,4.2591,4.2641,4.2637,4.2649,4.2714,4.2764,4.2772,4.2778,4.2759,4.2783,4.2798,4.2787,4.2882,4.2856,4.2867,4.29,4.2993,4.2998,4.3003,4.3031,4.304,4.3048,0,0,0,0,0,0,4.2609,4.2645,4.2641,4.2703,4.2731,4.2761,4.2792,4.2787,4.282,4.2816,4.282,4.2827,4.2883,4.2897,4.2867,4.2963,4.2935,4.2942,4.2952,4.2961,4.2968,4.2964,4.2842,0,0,0,0,0,4.262,4.2659,4.2688,4.274,4.2755,4.2771,4.2793,4.2796,4.2824,4.2835,4.2853,4.288,4.2916,4.2939,4.2973,4.3036,4.3043,4.3065,4.3072,4.3077,4.3084,4.312,4.313,4.3021,4.3021,4.3021,0,0,4.2643,4.2668,4.2692,4.2744,4.2766,4.2806,4.2781,4.2823,4.2853,4.2841,4.2894,4.2908,4.2938,4.2998,4.3024,4.3011,4.3116,4.3084,4.3088,4.3091,4.3126,4.3136,4.3145,4.3024,4.3024,4.3023,0,0,4.2706,4.2729,4.2776,4.2799,4.2834,4.2845,4.2856,4.2888,4.2898,4.2952,4.2945,4.2979,4.3041,4.3063,4.3083,4.3158,4.3149,4.3169,4.3206,4.3241,4.325,4.3257,4.3285,4.3295,4.3175,4.3175,4.3175,0,4.273,4.2791,4.2799,4.2844,4.2868,4.2862,4.2909,4.2931,4.2974,4.299,4.2975,4.3054,4.3073,4.3139,4.3158,4.3173,4.3186,4.3165,4.3248,4.3256,4.3263,4.329,4.33,4.3177,4.3177,4.3177,4.3176,0,4.282,4.2862,4.2896,4.2941,4.2968,4.3013,4.3028,4.3055,4.3056,4.3069,4.3125,4.3148,4.3188,4.3204,4.3204,4.327,4.3261,4.3247,4.3218,4.3275,4.3301,4.3311,4.318,4.3179,4.3179,4.3178,0,0,4.2893,4.2945,4.2957,4.2979,4.3018,4.3051,4.3096,4.3138,4.3161,4.3191,4.323,4.3284,4.3272,4.3294,4.3297,4.3328,4.3388,4.331,4.3311,4.3325,4.3464,4.3475,4.3486,4.3383,4.3385,4.3387,4.3462,0,4.296,4.3043,4.3054,4.3127,4.3167,4.3163,4.3203,4.3231,4.3245,4.328,4.3295,4.3334,4.3314,4.3328,4.3359,4.3374,4.3416,4.3369,4.3419,4.342,4.3412,4.3499,4.351,4.358,4.3472,4.3473,4.3474,0,4.3049,4.3086,4.3164,4.3201,4.3218,4.3254,4.3294,4.3328,4.336,4.3368,4.3395,4.3394,4.3441,4.3412,4.3477,4.3445,4.3466,4.3477,4.348,4.3484,4.3451,4.3507,4.3602,4.3613,4.349,4.3488,4.3487,0,4.3097,4.3165,4.3222,4.324,4.3283,4.3309,4.3328,4.3359,4.3384,4.3419,4.3435,4.3474,4.3495,4.3525,4.3536,4.3513,4.3601,4.3571,4.3608,4.3608,4.3626,4.3625,4.3727,4.364,4.3639,4.3639,4.3639,0,4.3171,4.3219,4.3244,4.3278,4.3333,4.3344,4.3397,4.3414,4.3442,4.348,4.3478,4.3513,4.3525,4.3561,4.3569,4.3623,4.3632,4.364,4.3641,4.364,4.3639,4.3654,4.3649,4.3642,4.3641,4.3641,4.364,0,4.3233,4.3251,4.3313,4.335,4.3361,4.3399,4.3431,4.3464,4.3479,4.3526,4.3538,4.356,4.3604,4.3618,4.3669,4.3675,4.3738,4.3734,4.3727,4.3728,4.3764,4.3761,4.3879,4.3896,4.3797,4.3798,4.3799,0,4.3279,4.3317,4.336,4.3386,4.3407,4.3449,4.3476,4.3489,4.3516,4.3558,4.3586,4.363,4.3666,4.3735,4.3755,4.3795,4.3793,4.3832,4.3799,4.3798,4.3795,4.3793,4.3797,4.3838,4.3839,4.384,4.3841,0,4.336,4.3368,4.3408,4.3452,4.3485,4.352,4.3553,4.3574,4.3592,4.3623,4.3669,4.3697,4.3752,4.3796,4.3837,4.3855,4.3851,4.3851,4.3862,4.3861,4.3856,4.3861,4.3745,4.3848,4.3848,4.3847,4.3847,4.3846,4.3416,4.345,4.3487,4.3532,4.3559,4.3591,4.3625,4.3645,4.3685,4.3732,4.3737,4.3787,4.3819,4.3875,4.3896,4.3935,4.3923,4.3939,4.3943,4.3946,4.395,4.3851,4.3942,4.3942,4.3942,4.3941,4.3941,0,4.3498,4.3522,4.3564,4.3612,4.3648,4.3644,4.3681,4.371,4.3755,4.3787,4.3824,4.3878,4.3921,4.3945,4.3988,4.4015,4.4014,4.4026,4.4024,4.4028,4.3957,4.3944,4.4026,4.4026,4.4026,4.4025,4.4025,4.4025,4.3544,4.3603,4.3616,4.3688,4.3711,4.3762,4.3784,4.3814,4.384,4.3901,4.3938,4.3954,4.3984,4.4029,4.4069,4.4075,4.4091,4.4104,4.4109,4.4042,4.4033,4.4025,4.4013,4.4107,4.4107,4.4177,4.4178,4.4178]}]]